When you browse on this site, cookies collect data to enhance your experience and personalize the content and advertising you see.
Visit our Privacy Policy to learn more. By continuing to use the site, you agree to this use of cookies and data.
  • In Hungary
  • List of Countries
  • For 7 days
  • Water Temperature
  • Weather Map
  • News
  • Weather Widgets
  • user-avatar
    Login

    Hourly Weather Maliivs'ke

    Today, 13 November, Wednesday

    Time Temperature Precipitation Wind Pressure Humidity
    00:00 +9°C° 0 mm 2 mps 755 mmHg 90%
    01:00 +9°C° 0 mm 3 mps 755 mmHg 90%
    02:00 +9°C° 0 mm 3 mps 755 mmHg 89%
    03:00 +8°C° 0 mm 3 mps 755 mmHg 89%
    04:00 +8°C° 0 mm 3 mps 755 mmHg 89%
    05:00 +8°C° 0 mm 3 mps 755 mmHg 89%
    06:00 +7°C° 0 mm 4 mps 755 mmHg 85%
    07:00 +7°C° 0 mm 4 mps 755 mmHg 82%
    08:00 +8°C° 0 mm 5 mps 756 mmHg 79%
    09:00 +9°C° 0 mm 5 mps 755 mmHg 71%
    10:00 +12°C° 0 mm 5 mps 755 mmHg 63%
    11:00 +14°C° 0 mm 6 mps 755 mmHg 54%
    12:00 +14°C° 0 mm 6 mps 755 mmHg 53%
    13:00 +14°C° 0 mm 6 mps 755 mmHg 51%
    14:00 +14°C° 0 mm 6 mps 755 mmHg 50%
    15:00 +13°C° 0 mm 5 mps 754 mmHg 55%
    16:00 +12°C° 0 mm 5 mps 754 mmHg 60%
    17:00 +11°C° 0 mm 4 mps 754 mmHg 65%
    18:00 +9°C° 0 mm 5 mps 754 mmHg 68%
    19:00 +9°C° 0 mm 5 mps 754 mmHg 70%
    20:00 +8°C° 0 mm 5 mps 754 mmHg 72%
    21:00 +8°C° 0 mm 5 mps 754 mmHg 73%
    22:00 +7°C° 0 mm 5 mps 754 mmHg 75%
    23:00 +6°C° 0 mm 5 mps 754 mmHg 76%

    Tomorrow, 14 November, Thursday

    Time Temperature Precipitation Wind Pressure Humidity
    00:00 +6°C° 0 mm 5 mps 754 mmHg 76%
    01:00 +6°C° 0 mm 5 mps 754 mmHg 77%
    02:00 +5°C° 0 mm 5 mps 754 mmHg 77%
    03:00 +4°C° 0 mm 6 mps 754 mmHg 75%
    04:00 +4°C° 0 mm 6 mps 754 mmHg 72%
    05:00 +3°C° 0 mm 6 mps 754 mmHg 70%
    06:00 +3°C° 0 mm 6 mps 754 mmHg 67%
    07:00 +3°C° 0 mm 7 mps 754 mmHg 65%
    08:00 +4°C° 0 mm 7 mps 754 mmHg 62%
    09:00 +5°C° 0 mm 8 mps 754 mmHg 56%
    10:00 +6°C° 0 mm 8 mps 754 mmHg 50%
    11:00 +9°C° 0 mm 8 mps 754 mmHg 43%
    12:00 +9°C° 0 mm 7 mps 754 mmHg 41%
    13:00 +10°C° 0 mm 7 mps 754 mmHg 39%
    14:00 +10°C° 0 mm 7 mps 753 mmHg 37%
    15:00 +9°C° 0 mm 7 mps 753 mmHg 40%
    16:00 +8°C° 0 mm 6 mps 753 mmHg 44%
    17:00 +7°C° 0 mm 6 mps 753 mmHg 47%
    18:00 +6°C° 0 mm 7 mps 753 mmHg 49%
    19:00 +5°C° 0 mm 7 mps 754 mmHg 51%
    20:00 +5°C° 0 mm 8 mps 754 mmHg 52%
    21:00 +4°C° 0 mm 8 mps 754 mmHg 52%
    22:00 +4°C° 0 mm 8 mps 754 mmHg 52%
    23:00 +4°C° 0 mm 8 mps 754 mmHg 52%

    Day after tomorrow, 15 November, Friday

    Time Temperature Precipitation Wind Pressure Humidity
    00:00 +4°C° 0 mm 8 mps 754 mmHg 52%
    01:00 +2°C° 0 mm 8 mps 754 mmHg 53%
    02:00 +2°C° 0 mm 8 mps 754 mmHg 54%
    03:00 +2°C° 0 mm 8 mps 754 mmHg 56%
    04:00 +3°C° 0 mm 7 mps 754 mmHg 58%
    05:00 +3°C° 0 mm 7 mps 754 mmHg 60%
    06:00 +2°C° 0 mm 8 mps 754 mmHg 61%
    07:00 +2°C° 0 mm 8 mps 754 mmHg 61%
    08:00 +2°C° 0 mm 8 mps 754 mmHg 62%
    09:00 +3°C° 0 mm 9 mps 754 mmHg 60%
    10:00 +6°C° 0 mm 9 mps 754 mmHg 55%
    11:00 +7°C° 0 mm 9 mps 755 mmHg 51%
    12:00 +7°C° 0 mm 8 mps 754 mmHg 48%
    13:00 +9°C° 0 mm 8 mps 754 mmHg 46%
    14:00 +9°C° 0 mm 8 mps 754 mmHg 44%
    15:00 +8°C° 0 mm 7 mps 754 mmHg 48%
    16:00 +7°C° 0 mm 6 mps 754 mmHg 51%
    17:00 +6°C° 0 mm 5 mps 755 mmHg 55%
    18:00 +6°C° 0 mm 5 mps 755 mmHg 56%
    19:00 +6°C° 0 mm 5 mps 755 mmHg 58%
    20:00 +5°C° 0 mm 5 mps 755 mmHg 59%
    21:00 +5°C° 0 mm 5 mps 755 mmHg 61%
    22:00 +3°C° 0 mm 5 mps 756 mmHg 63%
    23:00 +3°C° 0 mm 5 mps 756 mmHg 65%

    16 November, Saturday

    Time Temperature Precipitation Wind Pressure Humidity
    00:00 +2°C° 0 mm 5 mps 756 mmHg 67%
    01:00 +2°C° 0 mm 5 mps 756 mmHg 69%
    02:00 +2°C° 0 mm 5 mps 756 mmHg 71%
    03:00 +1°C° 0 mm 5 mps 756 mmHg 72%
    04:00 +1°C° 0 mm 6 mps 756 mmHg 73%
    05:00 +1°C° 0 mm 6 mps 756 mmHg 74%
    06:00 +1°C° 0 mm 6 mps 756 mmHg 73%
    07:00 0°C° 0 mm 7 mps 757 mmHg 73%
    08:00 0°C° 0 mm 7 mps 757 mmHg 73%
    09:00 +2°C° 0 mm 7 mps 757 mmHg 68%
    10:00 +4°C° 0 mm 7 mps 757 mmHg 64%
    11:00 +5°C° 0 mm 6 mps 757 mmHg 59%
    12:00 +7°C° 0 mm 6 mps 757 mmHg 56%
    13:00 +7°C° 0 mm 6 mps 757 mmHg 52%
    14:00 +8°C° 0 mm 6 mps 757 mmHg 49%
    15:00 +7°C° 0 mm 6 mps 757 mmHg 52%
    16:00 +5°C° 0 mm 6 mps 757 mmHg 56%
    17:00 +5°C° 0 mm 5 mps 757 mmHg 59%
    18:00 +5°C° 0 mm 5 mps 757 mmHg 60%
    19:00 +3°C° 0 mm 5 mps 757 mmHg 62%
    20:00 +3°C° 0 mm 5 mps 757 mmHg 63%
    21:00 +2°C° 0 mm 5 mps 757 mmHg 66%
    22:00 +2°C° 0 mm 5 mps 758 mmHg 68%
    23:00 +2°C° 0 mm 5 mps 758 mmHg 70%

    17 November, Sunday

    Time Temperature Precipitation Wind Pressure Humidity
    00:00 +1°C° 0 mm 5 mps 758 mmHg 73%
    01:00 +1°C° 0 mm 5 mps 758 mmHg 76%
    02:00 0°C° 0 mm 4 mps 758 mmHg 79%
    03:00 0°C° 0 mm 4 mps 758 mmHg 82%
    04:00 0°C° 0 mm 4 mps 758 mmHg 84%
    05:00 0°C° 0 mm 4 mps 758 mmHg 87%
    06:00 0°C° 0 mm 5 mps 758 mmHg 87%
    07:00 0°C° 0 mm 5 mps 758 mmHg 86%
    08:00 0°C° 0 mm 5 mps 759 mmHg 86%
    09:00 +2°C° 0 mm 5 mps 759 mmHg 79%
    10:00 +3°C° 0 mm 5 mps 759 mmHg 72%
    11:00 +5°C° 0 mm 5 mps 759 mmHg 64%
    12:00 +6°C° 0 mm 5 mps 758 mmHg 62%
    13:00 +7°C° 0 mm 5 mps 758 mmHg 59%
    14:00 +8°C° 0 mm 5 mps 758 mmHg 57%
    15:00 +7°C° 0 mm 5 mps 758 mmHg 62%
    16:00 +6°C° 0 mm 5 mps 758 mmHg 66%
    17:00 +5°C° 0 mm 4 mps 758 mmHg 71%
    18:00 +4°C° 0 mm 4 mps 758 mmHg 73%
    19:00 +3°C° 0 mm 5 mps 758 mmHg 75%
    20:00 +3°C° 0 mm 5 mps 758 mmHg 77%
    21:00 +4°C° 0 mm 4 mps 758 mmHg 78%
    22:00 +3°C° 0 mm 4 mps 758 mmHg 79%
    23:00 +3°C° 0 mm 4 mps 758 mmHg 80%

    18 November, Monday

    Time Temperature Precipitation Wind Pressure Humidity
    00:00 +3°C° 0 mm 4 mps 758 mmHg 80%
    01:00 +1°C° 0 mm 4 mps 758 mmHg 80%
    02:00 +1°C° 0 mm 4 mps 757 mmHg 80%
    03:00 +1°C° 0 mm 4 mps 757 mmHg 78%
    04:00 +1°C° 0 mm 4 mps 757 mmHg 76%
    05:00 +1°C° 0 mm 4 mps 757 mmHg 75%
    06:00 +1°C° 0 mm 4 mps 757 mmHg 71%
    07:00 +1°C° 0 mm 5 mps 757 mmHg 66%
    08:00 +1°C° 0 mm 5 mps 757 mmHg 62%
    09:00 +3°C° 0 mm 5 mps 757 mmHg 53%
    10:00 +6°C° 0 mm 5 mps 757 mmHg 45%
    11:00 +8°C° 0 mm 5 mps 757 mmHg 37%
    12:00 +8°C° 0 mm 5 mps 756 mmHg 33%
    13:00 +9°C° 0 mm 5 mps 756 mmHg 29%
    14:00 +9°C° 0 mm 5 mps 756 mmHg 26%
    15:00 +8°C° 0 mm 5 mps 756 mmHg 31%
    16:00 +7°C° 0 mm 5 mps 755 mmHg 35%
    17:00 +5°C° 0 mm 5 mps 755 mmHg 40%
    18:00 +5°C° 0 mm 5 mps 755 mmHg 42%
    19:00 +3°C° 0 mm 5 mps 755 mmHg 44%
    20:00 +3°C° 0 mm 5 mps 755 mmHg 46%
    21:00 +2°C° 0 mm 5 mps 755 mmHg 47%
    22:00 +3°C° 0 mm 4 mps 755 mmHg 49%
    23:00 +3°C° 0 mm 4 mps 755 mmHg 51%
    Show more